(60) Echo
ephemeris date magn radius delta ra dec elong phase
Today18 Sep 202514.12.615 AU3.280 AU14h19m-11°57'41.6°14.8°
Opposition11 Jul 202612.42.829 AU1.815 AU19h22m-16°29'174.4°2.0°
(60) Echo - 2025-09-18
astro.vanbuitenen.nl


 
-1 year
-1 month
-1 day
Now
+1 day
+1 month
+1 year

The interactive orbit chart above shows the body's path through the solar system and its position at the given date. Green and blue lines are shown perpendicular to the ecliptic plane: Green if the path is above the ecliptic plane, blue if it is below. (Left-click and drag to rotate the view; Right-click and drag to move the view; Use scroll wheel to zoom in our out.)

The orbital elements of Echo are:

            e (Eccentricity)                : 0.1845002
            a (Semimajor axis)              : 2.3923459
            i (Inclination)                 : 3.60049
            Ω (Longitude of ascending node) : 191.52664
            ω (Argument of perihelion)      : 270.80957
            M (Mean anomaly)                : 74.87065
            Epoch                           : 2025 May 05

            L (Longitude of perihelion)     : 102.33781
            B (Latitude of perihelion)      : -3.60013
            P (Orbital period in years)     : 3.70            
        

The light curve chart below shows the estimated development of the minor planet's magnitude.


The all-sky chart below shows the path of the minor planet over the same period as the light curve. The current position is marked yellow.





The following chart shows the path of the minor planet in the next few days. The field of view is optimized for (~10x50) binoculars and finderscopes. A more printer-friendly version of the same chart can be found below.




Ephemerides:
Date       Time       RA (2000)    DEC (2000)    delta   radius  elong  phase   PA    magn
2025-09-18 00:00 UT   14 19 12.9   -11 57 20     3.280    2.615   41.6   14.8   107   14.1 
2025-09-18 02:26 UT   14 19 22.4   -11 58 07     3.281    2.615   41.5   14.8   107   14.1 
2025-09-19 00:00 UT   14 20 46.8   -12 05 00     3.290    2.616   41.0   14.6   107   14.1 
2025-09-20 00:00 UT   14 22 20.9   -12 12 39     3.300    2.618   40.4   14.4   107   14.1 
2025-09-21 00:00 UT   14 23 55.3   -12 20 16     3.310    2.619   39.8   14.2   107   14.1 
2025-09-22 00:00 UT   14 25 29.9   -12 27 51     3.320    2.621   39.3   14.0   106   14.1 
2025-09-23 00:00 UT   14 27 04.8   -12 35 25     3.330    2.623   38.7   13.8   106   14.1 
2025-09-24 00:00 UT   14 28 39.9   -12 42 57     3.339    2.624   38.1   13.7   106   14.1 
2025-09-25 00:00 UT   14 30 15.3   -12 50 28     3.349    2.626   37.6   13.5   106   14.1 
2025-09-26 00:00 UT   14 31 50.9   -12 57 56     3.358    2.627   37.0   13.3   106   14.1 
2025-09-27 00:00 UT   14 33 26.7   -13 05 23     3.367    2.629   36.4   13.1   106   14.1 
2025-09-28 00:00 UT   14 35 02.8   -13 12 47     3.377    2.631   35.8   12.9   105   14.1 
2025-09-29 00:00 UT   14 36 39.1   -13 20 10     3.386    2.632   35.3   12.7   105   14.1 
2025-09-30 00:00 UT   14 38 15.7   -13 27 31     3.395    2.634   34.7   12.5   105   14.1 
2025-10-01 00:00 UT   14 39 52.5   -13 34 49     3.403    2.635   34.1   12.3   105   14.1 
2025-10-02 00:00 UT   14 41 29.5   -13 42 05     3.412    2.637   33.6   12.1   105   14.1 
2025-10-03 00:00 UT   14 43 06.7   -13 49 19     3.421    2.638   33.0   11.9   105   14.1 
2025-10-04 00:00 UT   14 44 44.1   -13 56 31     3.429    2.640   32.4   11.7   104   14.1 
2025-10-05 00:00 UT   14 46 21.8   -14 03 41     3.438    2.641   31.8   11.5   104   14.1 
2025-10-06 00:00 UT   14 47 59.6   -14 10 48     3.446    2.643   31.3   11.3   104   14.1 
2025-10-07 00:00 UT   14 49 37.7   -14 17 52     3.454    2.644   30.7   11.1   104   14.1 
2025-10-08 00:00 UT   14 51 16.0   -14 24 55     3.462    2.646   30.1   10.9   104   14.1 


    Terminology:
            
    delta:  distance between minor planet and earth in AU
    radius: distance between minor planet and sun in AU
    magn:   magnitude (brightness) estimate    
    ra:     right ascension in hours (24h = 360deg)
    dec:    declination in degrees
    elong:  elongation in degrees (angle sun-earth-minor planet)    
    phase:  phase angle in degrees (angle sun-minor planet-earth)        
    AU:     Astronomical Unit (mean distance between earth and sun: 149597870.7 km
    

Orbital elements provided by the MPC (Minor Planet Center).
Calculations by a modified version of AAPlus, a C# implementation of the AA+ project by PJ Naughter from the algorithms presented in the book "Astronomical Algorithms" by Jean Meeus.
NGC2000 dso catalog and star labels from VizieR as provided by the Strasbourg astronomical Data Center.
Tycho2 catalog from the ESO archive.